Weather History for Pamplona, Spain

Change the Weather History Date:

Thursday, November 29, 2012

  Actual Average Record
Temperature  
Mean Temperature 39 °F -  
Max Temperature 41 °F 46 °F 60 °F (2000)
Min Temperature 37 °F 35 °F 24 °F (2010)
Degree Days  
Heating Degree Days 26    
Moisture  
Dew Point 37 °F    
Average Humidity 93    
Maximum Humidity 100    
Minimum Humidity 81    
Precipitation  
Precipitation 0.00 in - - ()
Sea Level Pressure  
Sea Level Pressure 29.84 in    
Wind  
Wind Speed 9 mph ()    
Max Wind Speed 17 mph    
Max Gust Speed 17 mph    
Visibility 5.8 miles    
Events Rain    
Averages and records for this station are not official NWS values.
T = Trace of Precipitation, MM = Missing Value Source: Averaged Metar Reports

Daily Weather History Graph

Daily Weather History Graph

Search for Another Location

Airport:

Trip Planner

Search our weather history database for the weather conditions in past years. The results will help you decide how hot, cold, wet, or windy it might be!

Date:

Astronomy

Nov. 29, 2012 Rise Set
Actual Time 8:15 AM CET 5:34 PM CET
Civil Twilight 7:44 AM CET 6:05 PM CET
Nautical Twilight 7:08 AM CET 6:40 PM CET
Astronomical Twilight 6:34 AM CET 7:14 PM CET
Moon 6:24 PM CET (11/29) 8:50 AM CET (11/29)
Length of Visible Light 10h 21m
Length of Day
9h 18m
Full, 99% of the Moon is Illuminated
Nov 29
Full
Dec 6
Last Quarter
Dec 13
New
Dec 20
First Quarter
Dec 28
Full

Hourly Weather History & Observations

Time (CET) Temp. Windchill Dew Point Humidity Pressure Visibility Wind Dir Wind Speed Gust Speed Precip Events Conditions
12:00 AM 39.2 °F 33.6 °F 35.6 °F 87% 29.80 in 6.2 mi North 8.1 mph - N/A Rain Light Rain
5:30 AM 37.4 °F 28.9 °F 37.4 °F 100% 29.80 in 5.6 mi NW 13.8 mph - N/A Rain Light Rain
6:00 AM 37.4 °F 29.3 °F 35.6 °F 93% 29.83 in 5.0 mi NNW 12.7 mph - N/A Rain Light Rain
6:30 AM 37.4 °F 29.3 °F 35.6 °F 93% 29.83 in 6.2 mi NW 12.7 mph - N/A Rain Light Rain
7:00 AM 39.2 °F 31.6 °F 35.6 °F 87% 29.83 in 6.2 mi North 12.7 mph - N/A Rain Light Rain
7:30 AM 39.2 °F 31.2 °F 35.6 °F 87% 29.83 in 6.2 mi North 13.8 mph - N/A Rain Light Rain
8:00 AM 39.2 °F 32.5 °F 35.6 °F 87% 29.86 in 6.2 mi North 10.4 mph - N/A Rain Light Rain
8:30 AM 41.0 °F 33.5 °F 35.6 °F 81% 29.86 in 6.2 mi NNW 13.8 mph - N/A Rain Light Rain
9:00 AM 39.2 °F 32.0 °F 35.6 °F 87% 29.86 in 6.2 mi NNW 11.5 mph - N/A   Mostly Cloudy
9:30 AM 39.2 °F 31.6 °F 35.6 °F 87% 29.86 in 6.2 mi NNW 12.7 mph - N/A   Mostly Cloudy
10:30 AM 37.4 °F 28.9 °F 37.4 °F 100% 29.89 in 5.6 mi NW 13.8 mph - N/A Rain Light Rain
11:00 AM 37.4 °F 29.8 °F 37.4 °F 100% 29.89 in 5.6 mi NW 11.5 mph - N/A Rain Light Rain
11:30 AM 39.2 °F 31.6 °F 37.4 °F 93% 29.89 in 6.2 mi NW 12.7 mph - N/A   Mostly Cloudy
12:00 PM 39.2 °F 30.2 °F 37.4 °F 93% 29.89 in 6.2 mi NNW 17.3 mph - N/A Rain Light Rain
12:30 PM 39.2 °F 31.2 °F 37.4 °F 93% 29.89 in 5.6 mi NNW 13.8 mph - N/A Rain Light Rain
1:00 PM 39.2 °F 32.5 °F 37.4 °F 93% 29.89 in 6.2 mi NW 10.4 mph - N/A   Mostly Cloudy
1:30 PM 39.2 °F 31.6 °F 37.4 °F 93% 29.89 in 5.6 mi NW 12.7 mph - N/A Rain Light Rain
2:00 PM 39.2 °F 31.6 °F 37.4 °F 93% 29.86 in 6.2 mi NW 12.7 mph - N/A   Mostly Cloudy
2:30 PM 39.2 °F 31.6 °F 35.6 °F 87% 29.86 in 6.2 mi NW 12.7 mph - N/A   Mostly Cloudy
3:00 PM 41.0 °F 34.7 °F 39.2 °F 93% 29.86 in 6.2 mi NW 10.4 mph - N/A Rain Light Rain
3:30 PM 39.2 °F 33.6 °F 37.4 °F 93% 29.86 in 6.2 mi WNW 8.1 mph - N/A   Mostly Cloudy
4:00 PM 39.2 °F 34.2 °F 37.4 °F 93% 29.86 in 5.0 mi NW 6.9 mph - N/A Rain Light Rain
4:30 PM 39.2 °F 32.5 °F 37.4 °F 93% 29.86 in 6.2 mi NW 10.4 mph - N/A   Mostly Cloudy
5:00 PM 39.2 °F 34.2 °F 37.4 °F 93% 29.83 in 6.2 mi NNW 6.9 mph - N/A Rain Light Rain
5:30 PM 39.2 °F 35.0 °F 37.4 °F 93% 29.86 in 6.2 mi WNW 5.8 mph - N/A Rain Light Rain
6:00 PM 39.2 °F 32.5 °F 37.4 °F 93% 29.83 in 4.3 mi NNW 10.4 mph - N/A Rain Light Rain
6:30 PM 39.2 °F 35.9 °F 37.4 °F 93% 29.83 in 6.2 mi NW 4.6 mph - N/A   Mostly Cloudy
7:00 PM 39.2 °F 35.0 °F 37.4 °F 93% 29.83 in 3.1 mi NNW 5.8 mph 17.3 mph N/A Rain Light Rain
7:06 PM 39.2 °F 31.6 °F 37.4 °F 93% 29.83 in 1.9 mi NNW 12.7 mph - N/A Rain Rain
7:30 PM 37.4 °F 31.4 °F 37.4 °F 100% 29.83 in 6.2 mi NNW 8.1 mph - N/A Rain Light Rain
8:00 PM 37.4 °F 33.8 °F 35.6 °F 93% 29.83 in 6.2 mi West 4.6 mph - N/A   Mostly Cloudy
8:30 PM 37.4 °F 34.9 °F 35.6 °F 93% 29.83 in 6.2 mi WNW 3.5 mph - N/A   Mostly Cloudy
9:00 PM 37.4 °F - 37.4 °F 100% 29.83 in 6.2 mi Variable 2.3 mph - N/A   Mostly Cloudy
9:30 PM 39.2 °F 35.9 °F 37.4 °F 93% 29.80 in 6.2 mi NW 4.6 mph - N/A   Mostly Cloudy
10:00 PM 39.2 °F 37.0 °F 37.4 °F 93% 29.80 in 6.2 mi WNW 3.5 mph - N/A Rain Light Rain
10:30 PM 37.4 °F 31.4 °F 37.4 °F 100% 29.80 in 6.2 mi NNW 8.1 mph - N/A Rain Light Rain
11:00 PM 37.4 °F 34.9 °F 37.4 °F 100% 29.80 in 6.2 mi WNW 3.5 mph - N/A Rain Light Rain
11:30 PM 37.4 °F 34.9 °F 35.6 °F 93% 29.77 in 6.2 mi NW 3.5 mph - N/A   Mostly Cloudy